User: anonymous   Login
Location: Berg
(47.2344°N, 9.5296°E)
Time: 19:37:36
(UTC+00:00)
Language:

Cosmos 1758 Rocket - Orbit

View from above orbital plane
View from above orbital plane
View from above satellite
View from above satellite

Ground track
Ground track

The orbit data is extracted from the following two-line orbital elements,

1 16792U 86046B   21104.33400962  .00000078  00000-0  65398-5 0  9995
2 16792  82.4821 327.6088 0024600  16.0053 344.1933 14.83279097860891
Epoch (UTC): 14 April 2021 08:00:58
Eccentricity: 0.0024600
inclination: 82.4821°
perigee height: 602 km
apogee height: 636 km
right ascension of ascending node: 327.6088°
argument of perigee: 16.0053°
revolutions per day: 14.83279097
mean anomaly at epoch: 344.1933°
orbit number at epoch: 86089

The dashed part of the orbit path shows where the satellite is in the earth's shadow,  

DLR